Weather History for Springfield, OH

Change the Weather History Date:

Wednesday, February 13, 2013

  Actual Average (KDAY) Record (KDAY)
Temperature  
Mean Temperature 28 °F 30 °F  
Max Temperature 32 °F 38 °F 70 °F (1938)
Min Temperature 24 °F 23 °F -28 °F (1899)
Degree Days  
Heating Degree Days 37 35  
Month to date heating degree days 465  
Since 1 July heating degree days 3788  
Cooling Degree Days 0 0  
Month to date cooling degree days 0  
Year to date cooling degree days 0  
Moisture  
Dew Point 23 °F    
Average Humidity 82    
Maximum Humidity 93    
Minimum Humidity 69    
Precipitation  
Precipitation 0.00 in 0.09 in 1.98 in (1948)
Month to date precipitation 1.05  
Year to date precipitation 3.76  
Snow  
Snow 0.00 in 0.30 in 5.60 in (1914)
Month to date snowfall 2.9  
Since 1 July snowfall 16.3  
Snow Depth -    
Sea Level Pressure  
Sea Level Pressure 29.86 in    
Wind  
Wind Speed 6 mph (NNW)    
Max Wind Speed 10 mph    
Max Gust Speed -    
Visibility 5 miles    
Events      
T = Trace of Precipitation, MM = Missing Value Source: NWS Daily Summary

Daily Weather History Graph

Daily Weather History Graph

Search for Another Location

Airport:

Trip Planner

Search our weather history database for the weather conditions in past years. The results will help you decide how hot, cold, wet, or windy it might be!

Date:

Astronomy

Feb. 13, 2013 Rise Set
Actual Time 7:30 AM EST 6:09 PM EST
Civil Twilight 7:02 AM EST 6:37 PM EST
Nautical Twilight 6:30 AM EST 7:09 PM EST
Astronomical Twilight 5:59 AM EST 7:40 PM EST
Moon 8:59 AM EST (2/13) 10:10 PM EST (2/13)
Length of Visible Light 11h 34m
Length of Day
10h 39m
Waxing Crescent, 13% of the Moon is Illuminated
Feb 13
Waxing Crescent
Feb 17
First Quarter
Feb 25
Full
Mar 4
Last Quarter
Mar 11
New

Hourly Weather History & Observations

Time (EST) Temp. Windchill Dew Point Humidity Pressure Visibility Wind Dir Wind Speed Gust Speed Precip Events Conditions
12:56 AM 28.0 °F 21.7 °F 23.0 °F 81% 29.94 in 7.0 mi North 5.8 mph - N/A   Overcast
1:56 AM 27.1 °F 23.2 °F 23.0 °F 84% 29.92 in 6.0 mi North 3.5 mph - N/A   Clear
2:56 AM 26.1 °F 18.4 °F 23.0 °F 88% 29.92 in 5.0 mi North 6.9 mph - N/A   Clear
3:56 AM 25.2 °F 17.3 °F 22.1 °F 88% 29.90 in 5.0 mi North 6.9 mph - N/A   Scattered Clouds
4:35 AM 24.8 °F 17.9 °F 21.2 °F 86% 29.87 in 5.0 mi North 5.8 mph - N/A   Mostly Cloudy
4:44 AM 24.8 °F 16.9 °F 21.2 °F 86% 29.87 in 5.0 mi North 6.9 mph - N/A   Mostly Cloudy
4:56 AM 25.2 °F 15.1 °F 23.0 °F 91% 29.89 in 4.0 mi North 10.4 mph - N/A   Overcast
5:04 AM 24.8 °F 16.9 °F 23.0 °F 93% 29.86 in 3.0 mi North 6.9 mph - N/A   Overcast
5:49 AM 26.6 °F 19.1 °F 23.0 °F 86% 29.84 in 4.0 mi NNE 6.9 mph - N/A   Overcast
5:56 AM 26.1 °F 18.4 °F 22.1 °F 85% 29.87 in 4.0 mi NNE 6.9 mph - N/A   Overcast
6:56 AM 26.1 °F 18.4 °F 23.0 °F 88% 29.83 in 5.0 mi NNE 6.9 mph - N/A   Overcast
7:56 AM 26.1 °F 19.4 °F 22.1 °F 85% 29.82 in 4.0 mi NNE 5.8 mph - N/A   Overcast
8:32 AM 26.6 °F 20.0 °F 21.2 °F 80% 29.80 in 5.0 mi NE 5.8 mph - N/A   Haze
8:56 AM 27.1 °F 19.7 °F 23.0 °F 84% 29.83 in 4.0 mi North 6.9 mph - N/A   Clear
9:47 AM 26.6 °F 20.0 °F 21.2 °F 80% 29.84 in 5.0 mi NNW 5.8 mph - N/A   Haze
9:56 AM 27.1 °F 21.8 °F 22.1 °F 81% 29.87 in 5.0 mi North 4.6 mph - N/A   Haze
10:46 AM 28.4 °F 22.2 °F 21.2 °F 74% 29.83 in 5.0 mi North 5.8 mph - N/A   Haze
10:56 AM 28.0 °F 22.8 °F 22.1 °F 78% 29.86 in 5.0 mi North 4.6 mph - N/A   Haze
11:10 AM 28.4 °F - 21.2 °F 74% 29.83 in 5.0 mi Calm Calm - N/A   Haze
11:37 AM 28.4 °F - 21.2 °F 74% 29.82 in 5.0 mi Calm Calm - N/A   Haze
11:56 AM 28.0 °F - 22.1 °F 78% 29.85 in 5.0 mi Calm Calm - 0.00 in   Haze
12:56 PM 29.1 °F 22.1 °F 23.0 °F 78% 29.81 in 5.0 mi NNW 6.9 mph - N/A   Haze
1:56 PM 29.1 °F 20.6 °F 24.1 °F 81% 29.81 in 4.0 mi WNW 9.2 mph - N/A   Haze
2:56 PM 30.0 °F 21.1 °F 23.0 °F 75% 29.81 in 6.0 mi WNW 10.4 mph - N/A   Haze
3:15 PM 30.2 °F 21.3 °F 23.0 °F 75% 29.77 in 6.0 mi WNW 10.4 mph - N/A   Haze
3:56 PM 30.0 °F 23.2 °F 23.0 °F 75% 29.82 in 5.0 mi WNW 6.9 mph - N/A   Haze
4:56 PM 32.0 °F 26.4 °F 23.0 °F 69% 29.82 in 6.0 mi West 5.8 mph - N/A   Haze
5:56 PM 30.0 °F 24.1 °F 23.0 °F 75% 29.84 in 6.0 mi WSW 5.8 mph - N/A   Haze
6:56 PM 27.1 °F 21.8 °F 21.0 °F 78% 29.86 in 7.0 mi SW 4.6 mph - N/A   Clear
7:56 PM 28.0 °F 19.3 °F 22.1 °F 78% 29.89 in 7.0 mi SSW 9.2 mph - N/A   Clear
8:56 PM 27.1 °F 18.2 °F 24.1 °F 88% 29.89 in 5.0 mi SW 9.2 mph - N/A   Clear
9:56 PM 27.1 °F 18.2 °F 24.1 °F 88% 29.91 in 4.0 mi SSW 9.2 mph - N/A   Clear
10:56 PM 27.1 °F 18.9 °F 24.1 °F 88% 29.91 in 4.0 mi SSW 8.1 mph - N/A   Clear
11:56 PM 27.1 °F 18.2 °F 24.1 °F 88% 29.91 in 4.0 mi SW 9.2 mph - N/A   Clear